| time (UTC) | temp F | wind direction | speed MPH | gust MPH | rain 1hr in | rain 24hr in | rain mn in | humidity % | barometer mb |
| 20260904224555 | 89 | 27 | 0.0 | 3.0 | 0.00 | 0.00 | 0.00 | 66 | 1013.8 |
| 20260904223122 | 89 | 0 | 0.0 | 3.0 | 0.00 | 0.00 | 0.00 | 66 | 1013.9 |
| 20260904221556 | 88 | 44 | 1.0 | 5.0 | 0.00 | 0.00 | 0.00 | 67 | 1014.1 |
| 20260904220051 | 88 | 0 | 0.0 | 0.0 | 0.00 | 0.00 | 0.00 | 65 | 1014.3 |
| 20260904214551 | 87 | 0 | 0.0 | 3.0 | 0.00 | 0.00 | 0.00 | 64 | 1014.3 |
| 20260904213055 | 86 | 0 | 0.0 | 4.0 | 0.00 | 0.00 | 0.00 | 66 | 1014.5 |
| 20260904211551 | 86 | 101 | 2.0 | 7.0 | 0.00 | 0.00 | 0.00 | 72 | 1014.8 |
| 20260904210113 | 87 | 45 | 1.0 | 5.0 | 0.00 | 0.00 | 0.00 | 72 | 1015.0 |
| 20260904204558 | 88 | 120 | 1.0 | 7.0 | 0.00 | 0.00 | 0.00 | 70 | 1015.1 |
| 20260904203101 | 89 | 0 | 0.0 | 3.0 | 0.00 | 0.00 | 0.00 | 68 | 1015.2 |
| 20260904201551 | 88 | 0 | 0.0 | 6.0 | 0.00 | 0.00 | 0.00 | 68 | 1015.1 |
| 20260904194555 | 88 | 0 | 0.0 | 5.0 | 0.00 | 0.00 | 0.00 | 69 | 1015.4 |
| 20260904193109 | 88 | 0 | 1.0 | 6.0 | 0.00 | 0.00 | 0.00 | 69 | 1015.5 |
| 20260904191554 | 88 | 47 | 2.0 | 6.0 | 0.00 | 0.00 | 0.00 | 68 | 1015.7 |
| 20260904190055 | 89 | 0 | 0.0 | 6.0 | 0.00 | 0.00 | 0.00 | 66 | 1015.7 |
| 20260904184551 | 89 | 0 | 1.0 | 4.0 | 0.00 | 0.00 | 0.00 | 67 | 1015.8 |
| 20260904183050 | 89 | 44 | 1.0 | 4.0 | 0.00 | 0.00 | 0.00 | 67 | 1015.9 |
| 20260904181547 | 89 | 0 | 0.0 | 7.0 | 0.00 | 0.00 | 0.00 | 67 | 1016.0 |
| 20260904180052 | 87 | 58 | 1.0 | 6.0 | 0.00 | 0.00 | 0.00 | 71 | 1016.2 |
| 20260904174548 | 87 | 0 | 0.0 | 5.0 | 0.00 | 0.00 | 0.00 | 70 | 1016.4 |
| 20260904173104 | 87 | 143 | 2.0 | 5.0 | 0.00 | 0.00 | 0.00 | 73 | 1016.4 |
| 20260904171551 | 87 | 109 | 1.0 | 4.0 | 0.00 | 0.00 | 0.00 | 73 | 1016.8 |
| 20260904170050 | 86 | 201 | 0.0 | 4.0 | 0.00 | 0.00 | 0.00 | 74 | 1017.0 |
| 20260904164549 | 86 | 0 | 2.0 | 5.0 | 0.00 | 0.00 | 0.00 | 75 | 1017.1 |
| 20260904163057 | 86 | 76 | 1.0 | 4.0 | 0.00 | 0.00 | 0.00 | 76 | 1017.1 |
| 20260904161600 | 86 | 0 | 0.0 | 2.0 | 0.00 | 0.00 | 0.00 | 76 | 1017.1 |
| 20260904160059 | 85 | 0 | 0.0 | 2.0 | 0.00 | 0.00 | 0.00 | 78 | 1017.0 |
| 20260904154549 | 84 | 137 | 0.0 | 3.0 | 0.00 | 0.00 | 0.00 | 79 | 1017.0 |
| 20260904153059 | 85 | 0 | 0.0 | 3.0 | 0.00 | 0.00 | 0.00 | 79 | 1016.8 |
| 20260904151557 | 83 | 0 | 1.0 | 6.0 | 0.00 | 0.00 | 0.00 | 83 | 1016.7 |
| 20260904150053 | 82 | 0 | 0.0 | 3.0 | 0.00 | 0.00 | 0.00 | 85 | 1016.6 |
| 20260904144611 | 0 | 0.0 | 0.0 | 0.00 | 0.00 | 0.00 | 1016.7 | ||
| 20260904143100 | 0 | 0.0 | 0.0 | 0.00 | 0.00 | 0.00 | 1016.6 | ||
| 20260904141557 | 0 | 0.0 | 0.0 | 0.00 | 0.00 | 0.00 | 1016.6 | ||
| 20260904140054 | 0 | 0.0 | 0.0 | 0.00 | 0.00 | 0.00 | 1016.7 | ||
| 20260904134551 | 0 | 0.0 | 0.0 | 0.00 | 0.00 | 0.00 | 1016.6 | ||
| 20260904133059 | 0 | 0.0 | 0.0 | 0.00 | 0.00 | 0.00 | 1016.4 | ||
| 20260904131606 | 0 | 0.0 | 0.0 | 0.00 | 0.00 | 0.00 | 1016.3 | ||
| 20260904130100 | 0 | 0.0 | 0.0 | 0.00 | 0.00 | 0.00 | 1016.1 | ||
| 20260904124603 | 0 | 0.0 | 0.0 | 0.00 | 0.00 | 0.00 | 1016.0 | ||
| 20260904123052 | 0 | 0.0 | 0.0 | 0.00 | 0.00 | 0.00 | 1015.9 | ||
| 20260904121549 | 0 | 0.0 | 0.0 | 0.00 | 0.00 | 0.00 | 1015.8 | ||
| 20260904120107 | 0 | 0.0 | 0.0 | 0.00 | 0.00 | 0.00 | 1015.6 | ||
| 20260904114556 | 0 | 0.0 | 0.0 | 0.00 | 0.00 | 0.00 | 1015.5 | ||
| 20260904113053 | 0 | 0.0 | 0.0 | 0.00 | 0.00 | 0.00 | 1015.4 | ||
| 20260904111551 | 0 | 0.0 | 0.0 | 0.00 | 0.00 | 0.00 | 1015.2 | ||
| 20260904110050 | 0 | 0.0 | 0.0 | 0.00 | 0.00 | 0.00 | 1015.1 | ||
| 20260904104556 | 0 | 0.0 | 0.0 | 0.00 | 0.00 | 0.00 | 1015.1 | ||
| 20260904103052 | 0 | 0.0 | 0.0 | 0.00 | 0.00 | 0.00 | 1015.0 | ||
| 20260904101550 | 0 | 0.0 | 0.0 | 0.00 | 0.00 | 0.00 | 1015.0 | ||
| 20260904100051 | 0 | 0.0 | 0.0 | 0.00 | 0.00 | 0.00 | 1014.9 | ||
| 20260904094553 | 0 | 0.0 | 0.0 | 0.00 | 0.00 | 0.00 | 1014.9 | ||
| 20260904093106 | 0 | 0.0 | 0.0 | 0.00 | 0.00 | 0.00 | 1014.9 | ||
| 20260904091559 | 0 | 0.0 | 0.0 | 0.00 | 0.00 | 0.00 | 1014.8 | ||
| 20260904090053 | 0 | 147 | 0.0 | 1.0 | 0.00 | 0.00 | 0.00 | 87 | 1014.8 |
| 20260904084552 | 80 | 264 | 0.0 | 6.0 | 0.00 | 0.00 | 0.00 | 86 | 1014.9 |
| 20260904083102 | 80 | 0 | 0.0 | 5.0 | 0.00 | 0.00 | 0.00 | 86 | 1015.0 |
| 20260904081555 | 80 | 106 | 0.0 | 2.0 | 0.00 | 0.00 | 0.00 | 86 | 1015.0 |
| 20260904080052 | 80 | 78 | 0.0 | 2.0 | 0.00 | 0.00 | 0.00 | 86 | 1015.0 |
| 20260904074601 | 80 | 145 | 0.0 | 2.0 | 0.00 | 0.00 | 0.00 | 86 | 1015.2 |
| 20260904073047 | 80 | 0 | 0.0 | 2.0 | 0.00 | 0.00 | 0.00 | 85 | 1015.3 |
| 20260904071611 | 81 | 224 | 0.0 | 3.0 | 0.00 | 0.00 | 0.00 | 85 | 1015.4 |
| 20260904070106 | 81 | 0 | 0.0 | 6.0 | 0.00 | 0.00 | 0.00 | 84 | 1015.5 |
| 20260904064605 | 81 | 110 | 0.0 | 5.0 | 0.00 | 0.00 | 0.00 | 83 | 1015.4 |
| 20260904063054 | 81 | 48 | 0.0 | 4.0 | 0.00 | 0.00 | 0.00 | 83 | 1015.5 |
| 20260904061553 | 81 | 89 | 0.0 | 8.0 | 0.00 | 0.00 | 0.00 | 83 | 1015.6 |
| 20260904060054 | 81 | 0 | 1.0 | 6.0 | 0.00 | 0.00 | 0.00 | 82 | 1015.5 |
| 20260904054551 | 82 | 136 | 0.0 | 3.0 | 0.00 | 0.00 | 0.00 | 81 | 1015.7 |
| 20260904053059 | 82 | 122 | 0.0 | 8.0 | 0.00 | 0.00 | 0.00 | 81 | 1015.6 |
| 20260904051545 | 82 | 0 | 0.0 | 10.0 | 0.00 | 0.00 | 0.00 | 80 | 1015.7 |
| 20260904050056 | 82 | 116 | 2.0 | 7.0 | 0.00 | 0.00 | 0.00 | 80 | 1015.5 |
| 20260904044601 | 82 | 0 | 0.0 | 9.0 | 0.00 | 0.00 | 0.00 | 79 | 1015.3 |
| 20260904043052 | 83 | 101 | 2.0 | 14.0 | 0.00 | 0.00 | 0.00 | 78 | 1015.1 |
| 20260904041548 | 83 | 65 | 4.0 | 13.0 | 0.00 | 0.00 | 0.00 | 75 | 1015.2 |
| 20260904040057 | 84 | 215 | 4.0 | 14.0 | 0.00 | 0.00 | 0.00 | 72 | 1015.1 |
| 20260904034551 | 85 | 0 | 3.0 | 11.0 | 0.00 | 0.00 | 0.00 | 70 | 1015.1 |
| 20260904033056 | 86 | 87 | 4.0 | 11.0 | 0.00 | 0.00 | 0.00 | 65 | 1014.9 |
| 20260904031601 | 86 | 179 | 3.0 | 10.0 | 0.00 | 0.00 | 0.00 | 64 | 1014.7 |
| 20260904030054 | 87 | 122 | 4.0 | 13.0 | 0.00 | 0.00 | 0.00 | 63 | 1014.3 |
| 20260904024553 | 87 | 88 | 5.0 | 13.0 | 0.00 | 0.00 | 0.00 | 61 | 1014.0 |
| 20260904023053 | 88 | 93 | 2.0 | 7.0 | 0.00 | 0.00 | 0.00 | 61 | 1013.7 |
| 20260904021551 | 88 | 66 | 5.0 | 13.0 | 0.00 | 0.00 | 0.00 | 60 | 1013.5 |
| 20260904020056 | 88 | 101 | 3.0 | 11.0 | 0.00 | 0.00 | 0.00 | 60 | 1013.3 |
| 20260904014553 | 88 | 0 | 4.0 | 13.0 | 0.00 | 0.00 | 0.00 | 60 | 1013.0 |
| 20260904013050 | 88 | 79 | 4.0 | 13.0 | 0.00 | 0.00 | 0.00 | 61 | 1012.9 |
| 20260904011553 | 88 | 84 | 3.0 | 11.0 | 0.00 | 0.00 | 0.00 | 61 | 1012.8 |
| 20260904010050 | 90 | 118 | 9.0 | 15.0 | 0.00 | 0.00 | 0.00 | 58 | 1012.7 |
| 20260904004553 | 92 | 58 | 6.0 | 15.0 | 0.00 | 0.00 | 0.00 | 54 | 1012.3 |
| 20260904003051 | 94 | 40 | 5.0 | 14.0 | 0.00 | 0.00 | 0.00 | 50 | 1011.8 |
| 20260904001550 | 96 | 26 | 3.0 | 8.0 | 0.00 | 0.00 | 0.00 | 47 | 1011.7 |
| 20260904000047 | 98 | 63 | 1.0 | 7.0 | 0.00 | 0.00 | 0.00 | 43 | 1011.4 |
| 20260903234556 | 98 | 116 | 2.0 | 9.0 | 0.00 | 0.00 | 0.00 | 42 | 1011.4 |
| 20260903233053 | 99 | 115 | 2.0 | 7.0 | 0.00 | 0.00 | 0.00 | 42 | 1011.3 |
| 20260903231556 | 99 | 62 | 3.0 | 7.0 | 0.00 | 0.00 | 0.00 | 41 | 1011.3 |
| 20260903230051 | 99 | 141 | 3.0 | 6.0 | 0.00 | 0.00 | 0.00 | 41 | 1011.2 |